[[{"header":{"parameterUnit":"m.s-1","parameterCategory":2,"la1":30.2991,"la2":30.254,"lo1":-89.0895,"lo2":-89.0444,"dy":0.0017,"dx":0.0017,"nx":28,"ny":28,"refTime":"2023-08-01T03:00:00:Z","depth":"0","parameterNumber":2,"parameterNumberName":"U-component_of_CURRENTS"},"data":[0,0,0,0,0,0,0,0,0,0,0,0,0,0,0,0,0,0,0,0,0,0,0,0,0,0,0,0,0,0,0,0,0,0,0,0,0,0,0,0,0,0,0,0,0,0,0,0,0,0,0,0,0,0,0,0,0,0,0.2012,0.2013,0,0.2087,0.2088,0.2089,0.2083,0.2083,0.2082,0.2081,0.2135,0.2137,0.2139,0,0,0,0,0,0,0,0,0,0,0,0,0,0.1856,0.1859,0.2011,0.2013,0.2014,0.2087,0.2088,0.2089,0.2084,0.2083,0.2082,0.2081,0.2134,0.2137,0.2139,0,0,0,0,0,0,0,0,0,0,0,0,0,0.1923,0.1859,0.2011,0.2023,0.2025,0.2087,0.2088,0.2089,0.2084,0.2083,0.2082,0.208,0.2134,0.2137,0.214,0.2182,0,0,0.215,0.2151,0,0,0,0,0,0,0,0,0.1919,0.1928,0.202,0.2023,0.2025,0.2078,0.2053,0.212,0.2084,0.2057,0.2081,0.208,0.2118,0.2122,0.2133,0.2185,0.2187,0.215,0.2152,0.2153,0.2154,0,0,0,0,0,0,0,0.1915,0.1925,0.2037,0.2022,0.2025,0.2023,0.2031,0.2066,0.2089,0.206,0.206,0.2076,0.2118,0.213,0.2135,0.2188,0.215,0.2153,0.2155,0.2156,0.2442,0.2447,0,0,0,0,0,0,0.1916,0.1921,0.2035,0.204,0.1973,0.2027,0.2036,0.2059,0.2089,0.2094,0.2077,0.2075,0.2125,0.2131,0.2136,0.2277,0.2153,0.2156,0.2158,0.2436,0.2443,0.2449,0,0,0,0,0,0,0.1912,0.1925,0.2032,0.1984,0.1999,0.2032,0.2057,0.2061,0.2072,0.2103,0.2107,0.2083,0.2125,0.2132,0.2193,0.2275,0.2158,0.2161,0.243,0.2438,0.2446,0.2501,0,0,0,0,0,0,0.1907,0.1924,0.1945,0.1985,0.2002,0.2074,0.2059,0.2064,0.2085,0.2084,0.2111,0.2115,0.2124,0.2188,0.2196,0.2277,0.2163,0.2422,0.2433,0.2443,0.2492,0.251,0.2526,0,0,0,0,0,0.1902,0.194,0.1946,0.196,0.2029,0.2076,0.2084,0.2099,0.2087,0.2102,0.2134,0.2114,0.2264,0.2194,0.2202,0.2286,0.2417,0.243,0.2443,0.2484,0.2506,0.2525,0,0,0,0,0,0,0.1889,0.1945,0.1952,0.2006,0.2039,0.2076,0.2102,0.2103,0.2138,0.2142,0.2151,0.216,0.2268,0.2274,0.2197,0.2414,0.2352,0.2367,0.2382,0.2403,0.2419,0.2433,0.2166,0,0,0,0,0,0.1897,0.1936,0.1981,0.2024,0.2043,0.2069,0.2091,0.2103,0.2139,0.2151,0.2172,0.2234,0.2332,0.2354,0.2431,0.2507,0.2602,0.2586,0.2603,0.2617,0.2644,0.2884,0.2924,0.2491,0.2491,0.2491,0,0,0.1902,0.1942,0.1962,0.2023,0.2051,0.2104,0.2079,0.2122,0.2178,0.2155,0.2232,0.2289,0.2374,0.249,0.2539,0.2491,0.2793,0.2633,0.2643,0.2663,0.2901,0.2943,0.298,0.25,0.2498,0.2497,0,0,0.194,0.197,0.2014,0.2047,0.21,0.213,0.2141,0.2183,0.2214,0.2286,0.2332,0.2435,0.2513,0.262,0.2681,0.284,0.289,0.2866,0.2934,0.3166,0.3203,0.3237,0.3406,0.3455,0.2854,0.2854,0.2854,0,0.194,0.2019,0.2033,0.2086,0.2132,0.2144,0.2208,0.2251,0.2308,0.2376,0.2322,0.2563,0.26,0.2817,0.2865,0.2879,0.2993,0.2829,0.3186,0.3221,0.3255,0.3421,0.3473,0.2858,0.2858,0.2858,0.2857,0,0.2022,0.2077,0.2109,0.2188,0.2229,0.229,0.2349,0.2408,0.2436,0.2495,0.2681,0.2745,0.2898,0.2934,0.2928,0.3203,0.3202,0.3189,0.3117,0.3301,0.3465,0.3518,0.2864,0.2863,0.2862,0.2861,0,0,0.2068,0.2148,0.216,0.2225,0.2296,0.2354,0.2457,0.259,0.2704,0.2758,0.2929,0.3076,0.3111,0.3188,0.3226,0.3377,0.3681,0.3362,0.3372,0.35,0.4174,0.4036,0.408,0.3727,0.3737,0.3745,0.4188,0,0.2142,0.226,0.227,0.2401,0.2495,0.2528,0.2635,0.275,0.2835,0.2996,0.3114,0.3279,0.3213,0.3294,0.3451,0.362,0.3827,0.356,0.4004,0.4017,0.3848,0.414,0.4018,0.4392,0.4241,0.425,0.4256,0,0.2269,0.2333,0.2453,0.258,0.2616,0.267,0.2871,0.2966,0.3173,0.324,0.3405,0.3485,0.3719,0.3635,0.4045,0.3873,0.4059,0.417,0.4191,0.4082,0.398,0.4193,0.4496,0.4378,0.4339,0.4332,0.4326,0,0.2409,0.2493,0.2598,0.2635,0.2751,0.2813,0.2884,0.3058,0.3203,0.3411,0.3541,0.3776,0.394,0.4181,0.4348,0.4252,0.4788,0.4702,0.4782,0.4771,0.4767,0.4738,0.4984,0.5108,0.5107,0.5105,0.5104,0,0.2573,0.2671,0.2657,0.2737,0.291,0.2911,0.3122,0.3222,0.3395,0.3568,0.3683,0.3859,0.4095,0.437,0.4502,0.479,0.4951,0.4879,0.4921,0.4777,0.4745,0.4712,0.4629,0.5122,0.5118,0.5115,0.5112,0,0.281,0.2768,0.2932,0.2984,0.3005,0.315,0.3284,0.3401,0.3533,0.3761,0.3838,0.4063,0.4336,0.457,0.4969,0.5011,0.5162,0.536,0.5119,0.512,0.4955,0.4878,0.5026,0.4897,0.5524,0.5524,0.5524,0,0.2985,0.3067,0.3149,0.3176,0.3197,0.3342,0.3411,0.3519,0.3594,0.3843,0.3932,0.4263,0.4412,0.4911,0.5095,0.5394,0.525,0.544,0.5231,0.5003,0.4956,0.4715,0.4576,0.5276,0.5274,0.5272,0.5271,0,0.3289,0.3271,0.3322,0.3401,0.3436,0.3541,0.359,0.368,0.3742,0.3899,0.4015,0.4152,0.4577,0.4782,0.5156,0.5293,0.5152,0.5404,0.5319,0.492,0.4547,0.4418,0.4865,0.5255,0.5257,0.5258,0.5259,0.5259,0.3446,0.353,0.3479,0.3557,0.3586,0.3561,0.3598,0.3593,0.3696,0.3761,0.3951,0.4101,0.4511,0.4968,0.5051,0.5148,0.5082,0.5091,0.5071,0.4886,0.4589,0.493,0.5231,0.5232,0.5233,0.5234,0.5235,0,0.3524,0.3508,0.3596,0.3559,0.3532,0.3564,0.3554,0.3499,0.3477,0.3645,0.3733,0.4122,0.4399,0.4688,0.4987,0.4888,0.4667,0.4783,0.4485,0.4405,0.4913,0.4718,0.4738,0.4738,0.4738,0.4738,0.4738,0.4739,0.3498,0.3495,0.3508,0.3414,0.3392,0.3278,0.3232,0.319,0.3252,0.3359,0.3544,0.3776,0.4229,0.4705,0.4768,0.4678,0.4352,0.4203,0.4144,0.4551,0.4577,0.4601,0.4401,0.4355,0.4354,0.3489,0.3483,0.3478]},{"header":{"parameterUnit":"m.s-1","parameterCategory":2,"la1":30.2991,"la2":30.254,"lo1":-89.0895,"lo2":-89.0444,"dy":0.0017,"dx":0.0017,"nx":28,"ny":28,"refTime":"2023-08-01T03:00:00:Z","depth":"0","parameterNumber":3,"parameterNumberName":"V-component_of_CURRENTS"},"data":[0,0,0,0,0,0,0,0,0,0,0,0,0,0,0,0,0,0,0,0,0,0,0,0,0,0,0,0,0,0,0,0,0,0,0,0,0,0,0,0,0,0,0,0,0,0,0,0,0,0,0,0,0,0,0,0,0,0,-0.0076,-0.0076,0,-0.0022,-0.0021,-0.0019,0.0044,0.0044,0.0045,0.0045,0.0134,0.0136,0.0138,0,0,0,0,0,0,0,0,0,0,0,0,0,-0.0089,-0.0089,-0.0076,-0.0076,-0.0076,-0.0022,-0.0021,-0.0019,0.0044,0.0044,0.0045,0.0045,0.0133,0.0136,0.0138,0,0,0,0,0,0,0,0,0,0,0,0,0,-0.0057,-0.0089,-0.0076,-0.0043,-0.004,-0.0022,-0.002,-0.0019,0.0044,0.0044,0.0045,0.0045,0.0133,0.0136,0.0139,0.0149,0,0,0.0148,0.015,0,0,0,0,0,0,0,0,-0.0059,-0.0056,-0.0048,-0.0045,-0.0042,-0.0001,0.0007,0.0037,0.0044,0.002,0.0045,0.0046,0.0087,0.0094,0.0113,0.0153,0.0157,0.0149,0.015,0.0152,0.0153,0,0,0,0,0,0,0,-0.0061,-0.0058,-0.0047,-0.0048,-0.0045,-0.002,-0.0014,0.0014,0.0056,0.0022,0.0025,0.0019,0.009,0.011,0.0115,0.0158,0.0148,0.0151,0.0153,0.0154,0.0279,0.028,0,0,0,0,0,0,-0.0085,-0.006,-0.0049,-0.0046,-0.0058,-0.0021,-0.0014,-0.0009,0.0055,0.0063,0.0019,0.0022,0.0104,0.0112,0.0119,0.0217,0.0152,0.0155,0.0157,0.0278,0.0279,0.0281,0,0,0,0,0,0,-0.0085,-0.0084,-0.0051,-0.0058,-0.0053,-0.0022,-0.0016,-0.0008,0.0002,0.0051,0.0062,0.0019,0.0105,0.0114,0.013,0.0217,0.0156,0.0159,0.0276,0.0278,0.028,0.036,0,0,0,0,0,0,-0.0086,-0.0084,-0.0087,-0.006,-0.0054,-0.0051,-0.0017,-0.0008,-0.0005,-0.0,0.0055,0.0064,0.0106,0.0125,0.0133,0.0221,0.0161,0.0274,0.0277,0.0279,0.0355,0.0364,0.0372,0,0,0,0,0,-0.0086,-0.009,-0.0087,-0.0086,-0.0059,-0.0052,-0.0046,-0.0017,-0.0006,-0.0004,0.0028,0.0062,0.015,0.0127,0.0137,0.0227,0.0273,0.0276,0.0279,0.0352,0.0363,0.0372,0,0,0,0,0,0,-0.0097,-0.0084,-0.008,-0.008,-0.0076,-0.0044,-0.0038,-0.003,-0.0002,0.0009,0.0052,0.0063,0.0125,0.0138,0.0111,0.0268,0.0229,0.0234,0.0281,0.0292,0.03,0.0367,0.0164,0,0,0,0,0,-0.0105,-0.01,-0.0093,-0.0094,-0.0092,-0.0071,-0.0065,-0.0048,-0.0025,-0.0012,0.0018,0.0072,0.0148,0.0181,0.0226,0.0285,0.0326,0.0356,0.0364,0.0371,0.043,0.0531,0.0555,0.0291,0.0291,0.0291,0,0,-0.0108,-0.0104,-0.0099,-0.0097,-0.0082,-0.0046,-0.0063,-0.0055,0.0008,-0.0007,0.0068,0.0086,0.0162,0.025,0.0283,0.0272,0.0458,0.0375,0.0382,0.0438,0.0537,0.0564,0.0587,0.0294,0.0293,0.0293,0,0,-0.01,-0.0109,-0.0093,-0.0085,-0.0078,-0.0049,-0.0055,-0.0037,0.0005,0.0046,0.0089,0.0148,0.0209,0.0318,0.0379,0.0453,0.0488,0.0456,0.0575,0.067,0.0694,0.0716,0.0764,0.079,0.0474,0.0475,0.0475,0,-0.0098,-0.0065,-0.0092,-0.0068,-0.0019,-0.0047,0.0018,0.0046,0.0069,0.0156,0.0077,0.0255,0.0277,0.0488,0.0511,0.0487,0.0513,0.0532,0.0686,0.0708,0.0729,0.0774,0.0802,0.0479,0.0478,0.0478,0.0478,0,-0.0059,-0.0031,-0.0022,0.0029,0.0062,0.0102,0.0145,0.019,0.0217,0.0276,0.042,0.0423,0.0566,0.0562,0.0559,0.0751,0.0708,0.0673,0.0667,0.0762,0.0801,0.0828,0.0485,0.0483,0.0482,0.0481,0,0,0.0003,0.0011,0.0025,0.0108,0.0137,0.0204,0.0298,0.0445,0.06,0.0565,0.0777,0.0828,0.0831,0.0899,0.0894,0.0945,0.107,0.0869,0.0872,0.0931,0.1251,0.1122,0.1138,0.105,0.1056,0.1061,0.1206,0,0.0079,0.0172,0.0151,0.0306,0.0406,0.0431,0.0563,0.0683,0.0767,0.0937,0.097,0.1127,0.0966,0.1047,0.1073,0.1083,0.1151,0.1033,0.1142,0.1146,0.1032,0.117,0.1041,0.1152,0.1232,0.1237,0.124,0,0.0196,0.0255,0.0393,0.0572,0.062,0.0688,0.0977,0.1083,0.1282,0.1346,0.1454,0.1474,0.158,0.1408,0.1469,0.1391,0.1357,0.1313,0.1318,0.1207,0.107,0.1078,0.1198,0.0884,0.1281,0.1278,0.1275,0,0.0404,0.0483,0.0624,0.0665,0.0805,0.0914,0.1024,0.123,0.1413,0.162,0.176,0.1835,0.193,0.1857,0.1719,0.1629,0.1755,0.1636,0.15,0.1488,0.1413,0.1384,0.1267,0.1747,0.1747,0.1746,0.1746,0,0.0594,0.0729,0.0719,0.0814,0.1056,0.1098,0.1399,0.1511,0.1732,0.1986,0.1984,0.2173,0.2048,0.2077,0.1885,0.1768,0.1901,0.1581,0.1551,0.1425,0.1397,0.1145,0.0973,0.1752,0.1751,0.175,0.1749,0,0.0865,0.0825,0.1015,0.1117,0.1158,0.1358,0.159,0.181,0.1965,0.2285,0.2365,0.2504,0.2514,0.2352,0.2288,0.2032,0.171,0.1845,0.167,0.1615,0.1109,0.0947,0.0935,0.0747,0.1716,0.1715,0.1713,0,0.1034,0.1127,0.1236,0.1314,0.1349,0.1585,0.1751,0.1929,0.214,0.2474,0.2642,0.2785,0.2885,0.27,0.2306,0.2007,0.1742,0.1684,0.1491,0.1117,0.0917,0.0854,0.069,0.1413,0.1409,0.1406,0.1404,0,0.1334,0.1321,0.1414,0.157,0.1699,0.1922,0.2137,0.2323,0.2552,0.2783,0.3048,0.3155,0.3006,0.2684,0.2275,0.199,0.138,0.1606,0.131,0.0765,0.0613,0.0401,0.1239,0.1375,0.1378,0.138,0.1382,0.1383,0.1505,0.1608,0.164,0.1816,0.1968,0.2175,0.2368,0.257,0.2872,0.3172,0.3279,0.3446,0.3006,0.2424,0.1982,0.111,0.1212,0.0829,0.0698,0.0697,0.0412,0.1153,0.118,0.1181,0.1183,0.1184,0.1185,0,0.1663,0.171,0.1878,0.2026,0.2217,0.2271,0.2563,0.2731,0.3007,0.3295,0.3492,0.34,0.2702,0.2026,0.0911,0.031,0.0086,0.0006,-0.013,-0.0235,0.0509,0.038,0.0124,0.0125,0.0125,0.0125,0.0126,0.0126,0.1706,0.1826,0.1897,0.2169,0.2298,0.2533,0.2683,0.291,0.3145,0.3434,0.3584,0.3714,0.3223,0.1271,-0.0154,-0.05,-0.0898,-0.0931,-0.1092,-0.0656,-0.059,-0.0528,-0.069,-0.1166,-0.1167,-0.182,-0.1827,-0.1832]}],[{"header":{"parameterUnit":"m.s-1","parameterCategory":2,"la1":30.2991,"la2":30.254,"lo1":-89.0895,"lo2":-89.0444,"dy":0.0017,"dx":0.0017,"nx":28,"ny":28,"refTime":"2023-08-01T03:00:00:Z","depth":"2","parameterNumber":2,"parameterNumberName":"U-component_of_CURRENTS"},"data":[0,0,0,0,0,0,0,0,0,0,0,0,0,0,0,0,0,0,0,0,0,0,0,0,0,0,0,0,0,0,0,0,0,0,0,0,0,0,0,0,0,0,0,0,0,0,0,0,0,0,0,0,0,0,0,0,0,0,0.1797,0.1798,0,0.1833,0.1833,0.1833,0.183,0.183,0.183,0.1829,0.1793,0.1793,0.1792,0,0,0,0,0,0,0,0,0,0,0,0,0,0.1746,0.1747,0.1797,0.1798,0.1799,0.1833,0.1833,0.1833,0.1831,0.183,0.183,0.1829,0.1794,0.1793,0.1792,0,0,0,0,0,0,0,0,0,0,0,0,0,0.1772,0.1747,0.1797,0.1802,0.1803,0.1832,0.1833,0.1833,0.1831,0.183,0.1829,0.1829,0.1794,0.1793,0.1792,0.1799,0,0,0.1789,0.1789,0,0,0,0,0,0,0,0,0.1771,0.1774,0.1801,0.1802,0.1803,0.1828,0.1802,0.1819,0.1831,0.1819,0.1829,0.1829,0.18,0.1798,0.1805,0.1797,0.1795,0.1789,0.1789,0.1788,0.1788,0,0,0,0,0,0,0,0.1769,0.1773,0.181,0.1802,0.1803,0.1809,0.1812,0.1805,0.181,0.182,0.182,0.1826,0.18,0.1806,0.1804,0.1795,0.1789,0.1789,0.1788,0.1788,0.1835,0.1837,0,0,0,0,0,0,0.1768,0.1771,0.1809,0.1811,0.1787,0.1811,0.1814,0.1819,0.1811,0.1811,0.1827,0.1826,0.1808,0.1805,0.1803,0.1862,0.1789,0.1788,0.1787,0.1834,0.1836,0.1838,0,0,0,0,0,0,0.1766,0.1771,0.1807,0.1793,0.1798,0.1812,0.1819,0.182,0.1831,0.1818,0.1815,0.1837,0.1807,0.1804,0.1813,0.1859,0.1787,0.1786,0.1832,0.1834,0.1837,0.1947,0,0,0,0,0,0,0.1765,0.177,0.1779,0.1793,0.1799,0.1836,0.1819,0.1822,0.1837,0.1836,0.1825,0.1821,0.1807,0.1815,0.1813,0.1856,0.1786,0.1829,0.1833,0.1836,0.1941,0.1953,0.1964,0,0,0,0,0,0.1763,0.1778,0.1779,0.1785,0.1809,0.1837,0.1841,0.1847,0.1838,0.1853,0.1848,0.1822,0.1835,0.1816,0.1812,0.1857,0.1828,0.1832,0.1836,0.1936,0.1951,0.1963,0,0,0,0,0,0,0.1759,0.178,0.1781,0.1802,0.1823,0.1837,0.1853,0.1854,0.1863,0.1861,0.1839,0.1836,0.1859,0.1841,0.1821,0.188,0.1829,0.1833,0.1907,0.192,0.1931,0.2004,0.1785,0,0,0,0,0,0.1764,0.1781,0.1801,0.1818,0.183,0.1842,0.1854,0.1861,0.1869,0.1873,0.1871,0.1869,0.1874,0.1883,0.1878,0.191,0.192,0.1938,0.1949,0.1959,0.2017,0.2076,0.21,0.1851,0.1851,0.1851,0,0,0.1765,0.178,0.1789,0.1818,0.1833,0.1867,0.1848,0.1875,0.1905,0.1867,0.1906,0.1899,0.1887,0.1926,0.1937,0.1919,0.2024,0.1964,0.1972,0.2026,0.2083,0.2108,0.213,0.1854,0.1853,0.1853,0,0,0.1785,0.1793,0.1819,0.1844,0.1876,0.1888,0.1898,0.1925,0.1938,0.1973,0.1957,0.2,0.1988,0.2024,0.2029,0.2102,0.2071,0.2077,0.2208,0.2264,0.2286,0.2306,0.2308,0.2327,0.2095,0.2095,0.2095,0,0.1788,0.1823,0.1832,0.187,0.1895,0.19,0.1939,0.196,0.199,0.2013,0.1997,0.207,0.2053,0.2142,0.2175,0.2135,0.2137,0.2154,0.2282,0.2302,0.2321,0.2318,0.2338,0.2101,0.21,0.21,0.2099,0,0.1834,0.1866,0.1885,0.1934,0.1962,0.1996,0.2027,0.2059,0.2072,0.2099,0.2185,0.2212,0.2263,0.2265,0.2246,0.2374,0.2319,0.2278,0.2254,0.2353,0.2342,0.2361,0.2109,0.2107,0.2106,0.2104,0,0,0.1833,0.1903,0.1911,0.1942,0.1999,0.2024,0.2082,0.2138,0.2179,0.225,0.2334,0.2408,0.2443,0.2459,0.2463,0.2547,0.2655,0.2486,0.2486,0.25,0.2747,0.2701,0.2715,0.2631,0.2636,0.264,0.2672,0,0.1867,0.1939,0.197,0.2039,0.2077,0.2109,0.216,0.2213,0.2252,0.233,0.2425,0.2486,0.2505,0.254,0.2643,0.2639,0.2717,0.2649,0.2642,0.2643,0.26,0.2742,0.2531,0.2545,0.269,0.2693,0.2695,0,0.1909,0.1949,0.202,0.2089,0.2109,0.2154,0.2231,0.2279,0.238,0.2416,0.2547,0.2584,0.2744,0.2723,0.2875,0.2823,0.282,0.2831,0.2829,0.2781,0.2636,0.2478,0.2573,0.2726,0.2723,0.2721,0.2719,0,0.1904,0.1985,0.2037,0.2064,0.2145,0.2185,0.2228,0.231,0.2364,0.248,0.2547,0.2705,0.2801,0.2875,0.2932,0.2888,0.3073,0.298,0.2948,0.2939,0.2765,0.2735,0.3105,0.3105,0.3105,0.3105,0.3105,0,0.193,0.1976,0.2038,0.207,0.2126,0.2188,0.2261,0.2313,0.243,0.2515,0.2607,0.2737,0.2853,0.2963,0.2977,0.3054,0.3105,0.3032,0.2985,0.2789,0.2763,0.2924,0.2903,0.3106,0.3106,0.3105,0.3105,0,0.1923,0.1973,0.2024,0.2099,0.2127,0.2162,0.227,0.2318,0.2432,0.2559,0.2606,0.2787,0.2926,0.3021,0.3125,0.3107,0.3154,0.3153,0.2903,0.2831,0.2952,0.2936,0.3104,0.3104,0.3103,0.3103,0.3103,0,0.1918,0.1945,0.2017,0.2032,0.2068,0.2135,0.2177,0.2299,0.2368,0.2597,0.2666,0.2853,0.2987,0.3142,0.3129,0.3147,0.3195,0.2935,0.2846,0.3036,0.2972,0.2956,0.2941,0.2616,0.2612,0.2608,0.2606,0,0.1876,0.1904,0.1937,0.1974,0.2015,0.2073,0.216,0.2226,0.2385,0.2527,0.2736,0.2867,0.3027,0.3001,0.3022,0.2984,0.2915,0.2865,0.3165,0.2663,0.2584,0.2517,0.2517,0.2575,0.2578,0.258,0.2582,0.2583,0.1811,0.1812,0.1845,0.189,0.1939,0.1997,0.2034,0.2156,0.2292,0.2436,0.2614,0.271,0.279,0.2727,0.2689,0.2634,0.28,0.2652,0.2659,0.2671,0.2625,0.2551,0.2523,0.2525,0.2528,0.253,0.2532,0,0.1691,0.1725,0.1751,0.1799,0.1833,0.1907,0.2007,0.2038,0.2176,0.2282,0.2402,0.222,0.226,0.2355,0.2255,0.2264,0.2188,0.2161,0.2059,0.2094,0.2124,0.2045,0.1791,0.1788,0.1786,0.1783,0,0,0.1613,0.1608,0.1647,0.1678,0.1737,0.1774,0.1825,0.1889,0.1966,0.1942,0.1942,0.2034,0.2265,0.1951,0.1959,0.189,0.1953,0.1802,0.2404,0.232,0.2346,0.243,0.2352,0,0,0,0,0]},{"header":{"parameterUnit":"m.s-1","parameterCategory":2,"la1":30.2991,"la2":30.254,"lo1":-89.0895,"lo2":-89.0444,"dy":0.0017,"dx":0.0017,"nx":28,"ny":28,"refTime":"2023-08-01T03:00:00:Z","depth":"2","parameterNumber":3,"parameterNumberName":"V-component_of_CURRENTS"},"data":[0,0,0,0,0,0,0,0,0,0,0,0,0,0,0,0,0,0,0,0,0,0,0,0,0,0,0,0,0,0,0,0,0,0,0,0,0,0,0,0,0,0,0,0,0,0,0,0,0,0,0,0,0,0,0,0,0,0,-0.0672,-0.0673,0,-0.0743,-0.0744,-0.0745,-0.0817,-0.0818,-0.0818,-0.0819,-0.0901,-0.0902,-0.0904,0,0,0,0,0,0,0,0,0,0,0,0,0,-0.0656,-0.0656,-0.0672,-0.0673,-0.0674,-0.0743,-0.0744,-0.0745,-0.0817,-0.0818,-0.0818,-0.0819,-0.09,-0.0902,-0.0904,0,0,0,0,0,0,0,0,0,0,0,0,0,-0.0691,-0.0655,-0.0672,-0.0715,-0.072,-0.0743,-0.0744,-0.0746,-0.0816,-0.0818,-0.0819,-0.082,-0.09,-0.0902,-0.0904,-0.0897,0,0,-0.0911,-0.0912,0,0,0,0,0,0,0,0,-0.0689,-0.0692,-0.0708,-0.0712,-0.0717,-0.077,-0.0768,-0.0796,-0.0816,-0.0783,-0.0819,-0.082,-0.0855,-0.0861,-0.0876,-0.09,-0.0904,-0.0911,-0.0913,-0.0914,-0.0914,0,0,0,0,0,0,0,-0.0686,-0.0689,-0.0703,-0.0709,-0.0714,-0.0751,-0.0757,-0.0774,-0.0814,-0.0786,-0.079,-0.0794,-0.0859,-0.0874,-0.0878,-0.0905,-0.0911,-0.0913,-0.0915,-0.0916,-0.0963,-0.0962,0,0,0,0,0,0,-0.0667,-0.0686,-0.0701,-0.0705,-0.0702,-0.075,-0.0757,-0.0754,-0.0814,-0.0824,-0.0793,-0.0797,-0.0869,-0.0876,-0.0882,-0.0889,-0.0914,-0.0916,-0.0917,-0.0963,-0.0962,-0.0962,0,0,0,0,0,0,-0.0667,-0.0668,-0.0698,-0.0696,-0.0702,-0.0748,-0.0745,-0.0755,-0.0775,-0.0819,-0.0829,-0.0802,-0.087,-0.0878,-0.0908,-0.0893,-0.0917,-0.0919,-0.0963,-0.0963,-0.0962,-0.0896,0,0,0,0,0,0,-0.0666,-0.0667,-0.0664,-0.0694,-0.0701,-0.0704,-0.0744,-0.0755,-0.0773,-0.0779,-0.083,-0.0839,-0.0872,-0.0905,-0.091,-0.0896,-0.0921,-0.0963,-0.0963,-0.0962,-0.0899,-0.0894,-0.089,0,0,0,0,0,-0.0665,-0.0651,-0.0663,-0.0665,-0.0693,-0.0703,-0.071,-0.075,-0.0772,-0.0773,-0.0819,-0.0838,-0.0907,-0.0906,-0.0913,-0.0899,-0.0963,-0.0963,-0.0962,-0.0901,-0.0895,-0.089,0,0,0,0,0,0,-0.0642,-0.0658,-0.0671,-0.0663,-0.0679,-0.0714,-0.0719,-0.0743,-0.078,-0.079,-0.0838,-0.0849,-0.0871,-0.0895,-0.0892,-0.0914,-0.0937,-0.0938,-0.0888,-0.0883,-0.0878,-0.0787,-0.0922,0,0,0,0,0,-0.0633,-0.0628,-0.0648,-0.0642,-0.0646,-0.0682,-0.0693,-0.0716,-0.0748,-0.0766,-0.0794,-0.0834,-0.0873,-0.0886,-0.0918,-0.0924,-0.0948,-0.092,-0.0916,-0.0912,-0.0843,-0.0898,-0.0892,-0.0962,-0.0962,-0.0962,0,0,-0.0622,-0.063,-0.0628,-0.0637,-0.0655,-0.0652,-0.0692,-0.0701,-0.0707,-0.0767,-0.0779,-0.0819,-0.0874,-0.089,-0.09,-0.0908,-0.0915,-0.0911,-0.0907,-0.084,-0.0897,-0.089,-0.0884,-0.0961,-0.0961,-0.0961,0,0,-0.0592,-0.0604,-0.0588,-0.0593,-0.0608,-0.063,-0.0628,-0.0652,-0.0675,-0.0683,-0.0743,-0.0758,-0.0804,-0.0834,-0.0861,-0.0844,-0.0895,-0.0872,-0.0767,-0.0824,-0.0818,-0.0812,-0.0874,-0.0875,-0.0864,-0.0864,-0.0864,0,-0.058,-0.0563,-0.0585,-0.0569,-0.0574,-0.0614,-0.0602,-0.0624,-0.0654,-0.0674,-0.0674,-0.0707,-0.0766,-0.0775,-0.0776,-0.0828,-0.0873,-0.0787,-0.0815,-0.081,-0.0806,-0.087,-0.0872,-0.0861,-0.0861,-0.0862,-0.0862,0,-0.0533,-0.0525,-0.0515,-0.0511,-0.0518,-0.0513,-0.0542,-0.0553,-0.0574,-0.06,-0.0592,-0.0616,-0.0628,-0.0662,-0.0712,-0.0708,-0.0758,-0.0812,-0.0822,-0.0794,-0.0866,-0.0868,-0.0856,-0.0857,-0.0858,-0.0859,0,0,-0.0501,-0.0486,-0.0482,-0.0483,-0.049,-0.0497,-0.0501,-0.0529,-0.0549,-0.0516,-0.0495,-0.0518,-0.0503,-0.0524,-0.0565,-0.0584,-0.063,-0.0667,-0.0672,-0.0713,-0.0762,-0.0733,-0.0734,-0.0704,-0.0703,-0.0702,-0.0839,0,-0.0464,-0.0429,-0.0429,-0.0414,-0.0411,-0.044,-0.0445,-0.0477,-0.0507,-0.0498,-0.0469,-0.0486,-0.0465,-0.0473,-0.0462,-0.0606,-0.0626,-0.0587,-0.079,-0.0795,-0.0761,-0.073,-0.0688,-0.0799,-0.0842,-0.0842,-0.0842,0,-0.0432,-0.0414,-0.0387,-0.0392,-0.0392,-0.0387,-0.0425,-0.0431,-0.0449,-0.0458,-0.0393,-0.0411,-0.0381,-0.0386,-0.0467,-0.045,-0.0566,-0.0652,-0.0663,-0.0635,-0.0766,-0.0827,-0.0802,-0.0847,-0.0847,-0.0846,-0.0846,0,-0.044,-0.0399,-0.0386,-0.0381,-0.0378,-0.0382,-0.0387,-0.0428,-0.0424,-0.0439,-0.0411,-0.0382,-0.036,-0.0431,-0.0553,-0.0549,-0.0666,-0.0722,-0.0782,-0.0785,-0.0776,-0.0777,-0.0774,-0.0773,-0.0773,-0.0773,-0.0772,0,-0.0429,-0.0427,-0.0386,-0.0386,-0.0367,-0.0375,-0.037,-0.0393,-0.0363,-0.0312,-0.0363,-0.0266,-0.0374,-0.0438,-0.0546,-0.0638,-0.0672,-0.0716,-0.0794,-0.0758,-0.0755,-0.0808,-0.081,-0.0778,-0.0777,-0.0776,-0.0775,0,-0.0469,-0.0441,-0.0427,-0.0395,-0.0379,-0.0375,-0.0323,-0.0306,-0.0314,-0.0223,-0.0214,-0.0221,-0.0285,-0.0414,-0.0594,-0.065,-0.078,-0.0828,-0.0766,-0.0828,-0.0863,-0.0861,-0.0882,-0.0881,-0.0881,-0.0881,-0.088,0,-0.0494,-0.0484,-0.0429,-0.0394,-0.0378,-0.0345,-0.0301,-0.0281,-0.0223,-0.0143,-0.0059,-0.0127,-0.0059,-0.0295,-0.05,-0.0704,-0.0756,-0.0832,-0.0777,-0.0788,-0.0864,-0.0862,-0.086,-0.0785,-0.0784,-0.0783,-0.0783,0,-0.0522,-0.0501,-0.0466,-0.0384,-0.0329,-0.0254,-0.0174,-0.0094,-0.0016,0.0085,0.0248,0.0289,0.0086,-0.0067,-0.0419,-0.0553,-0.0784,-0.0816,-0.0878,-0.0735,-0.07,-0.0773,-0.0774,-0.0775,-0.0776,-0.0777,-0.0777,-0.0777,-0.0528,-0.0497,-0.042,-0.0344,-0.0265,-0.0124,-0.0013,0.0131,0.0309,0.0525,0.0509,0.0602,0.0298,-0.0045,-0.0331,-0.0665,-0.0662,-0.0776,-0.0779,-0.0782,-0.0716,-0.0679,-0.0741,-0.0741,-0.0742,-0.0742,-0.0742,0,-0.0491,-0.0436,-0.0368,-0.0238,-0.0114,-0.0089,0.0116,0.0289,0.0585,0.0728,0.0886,0.0684,0.0452,0.0107,-0.035,-0.0628,-0.0669,-0.0721,-0.0716,-0.0722,-0.0727,-0.0658,-0.0668,-0.0669,-0.0669,-0.0669,0,0,-0.0452,-0.0363,-0.0313,-0.0097,0.0002,0.0223,0.0373,0.0639,0.0808,0.1039,0.1088,0.1019,0.0587,0.0275,-0.0132,-0.0383,-0.0479,-0.0435,-0.0469,-0.042,-0.0421,-0.074,-0.0638,0,0,0,0,0]}],[{"header":{"parameterUnit":"m.s-1","parameterCategory":2,"la1":30.2991,"la2":30.254,"lo1":-89.0895,"lo2":-89.0444,"dy":0.0017,"dx":0.0017,"nx":28,"ny":28,"refTime":"2023-08-01T03:00:00:Z","depth":"4","parameterNumber":2,"parameterNumberName":"U-component_of_CURRENTS"},"data":[0,0,0,0,0,0,0,0,0,0,0,0,0,0,0,0,0,0,0,0,0,0,0,0,0,0,0,0,0,0,0,0,0,0,0,0,0,0,0,0,0,0,0,0,0,0,0,0,0,0,0,0,0,0,0,0,0,0,0.0854,0.0855,0,0.0917,0.0918,0.0919,0.0978,0.0978,0.0978,0.0979,0.1059,0.1061,0.1063,0,0,0,0,0,0,0,0,0,0,0,0,0,0.0799,0.08,0.0854,0.0855,0.0855,0.0917,0.0918,0.0919,0.0978,0.0978,0.0979,0.0979,0.1058,0.1061,0.1063,0,0,0,0,0,0,0,0,0,0,0,0,0,0.0842,0.08,0.0854,0.0889,0.0892,0.0916,0.0918,0.0919,0.0978,0.0978,0.0979,0.0979,0.1058,0.106,0.1063,0.1068,0,0,0.1071,0.1072,0,0,0,0,0,0,0,0,0.0839,0.0844,0.0883,0.0887,0.089,0.0937,0.0928,0.0969,0.0977,0.0949,0.0979,0.098,0.1017,0.1023,0.1039,0.1072,0.1075,0.1071,0.1073,0.1074,0.1075,0,0,0,0,0,0,0,0.0836,0.0842,0.0883,0.0884,0.0888,0.0906,0.0913,0.0936,0.0982,0.0952,0.0955,0.0956,0.102,0.1036,0.1041,0.1076,0.1071,0.1074,0.1075,0.1076,0.1195,0.1196,0,0,0,0,0,0,0.082,0.0839,0.0881,0.0885,0.0861,0.0906,0.0914,0.0924,0.0982,0.099,0.0955,0.0958,0.1031,0.1038,0.1044,0.1127,0.1074,0.1077,0.1078,0.1193,0.1195,0.1197,0,0,0,0,0,0,0.0818,0.0823,0.0878,0.0859,0.0867,0.0906,0.0917,0.0925,0.0969,0.0984,0.0993,0.0994,0.1032,0.104,0.1098,0.1128,0.1078,0.108,0.1192,0.1194,0.1196,0.1247,0,0,0,0,0,0,0.0817,0.0823,0.0836,0.0859,0.0868,0.0912,0.0917,0.0926,0.0965,0.0971,0.1019,0.1025,0.1033,0.1094,0.1101,0.1131,0.1082,0.119,0.1193,0.1195,0.1243,0.125,0.1257,0,0,0,0,0,0.0815,0.0824,0.0837,0.0842,0.0882,0.0913,0.0921,0.0951,0.0966,0.0993,0.1031,0.1025,0.1117,0.1098,0.1105,0.1137,0.1188,0.1192,0.1195,0.124,0.1249,0.1257,0,0,0,0,0,0,0.0811,0.0831,0.0846,0.0863,0.0895,0.0922,0.0949,0.0967,0.1018,0.1032,0.105,0.106,0.1118,0.1123,0.1102,0.1179,0.1149,0.1155,0.1181,0.119,0.1196,0.121,0.1085,0,0,0,0,0,0.0813,0.0829,0.0854,0.0874,0.0894,0.0929,0.0949,0.0969,0.1007,0.1032,0.1067,0.1102,0.1133,0.1159,0.1184,0.1233,0.1235,0.1256,0.1263,0.1269,0.1285,0.1317,0.1328,0.1208,0.1208,0.1208,0,0,0.0813,0.0831,0.0838,0.0875,0.0908,0.0937,0.0946,0.0985,0.1015,0.103,0.1101,0.1128,0.115,0.1203,0.1229,0.1217,0.1303,0.1273,0.1278,0.1292,0.1321,0.1333,0.1343,0.1211,0.121,0.121,0,0,0.0818,0.0848,0.0863,0.0889,0.0932,0.096,0.0977,0.1024,0.1058,0.1112,0.1134,0.1189,0.1235,0.1267,0.1283,0.1344,0.1334,0.1349,0.1402,0.1432,0.1442,0.1451,0.1461,0.1471,0.1357,0.1357,0.1357,0,0.081,0.0846,0.0875,0.0898,0.0929,0.0974,0.1007,0.104,0.1101,0.1141,0.114,0.1241,0.1263,0.1332,0.1361,0.1361,0.137,0.1367,0.1441,0.145,0.1458,0.1466,0.1476,0.136,0.1359,0.1359,0.1359,0,0.0828,0.086,0.0879,0.0928,0.0967,0.1005,0.1051,0.1103,0.1149,0.1186,0.1271,0.1308,0.1373,0.1385,0.1396,0.1474,0.1458,0.144,0.1418,0.1473,0.1478,0.1487,0.1364,0.1363,0.1362,0.1361,0,0,0.0781,0.0871,0.0875,0.0912,0.0989,0.1017,0.1088,0.1166,0.1219,0.1278,0.1353,0.1419,0.1457,0.1479,0.1502,0.1538,0.1603,0.1527,0.1528,0.1534,0.1664,0.159,0.1593,0.1601,0.1603,0.1605,0.164,0,0.0789,0.0839,0.0892,0.0955,0.0993,0.1066,0.1126,0.12,0.127,0.1351,0.1407,0.1488,0.1483,0.1537,0.1569,0.1601,0.1632,0.1595,0.1613,0.1614,0.1539,0.1603,0.1612,0.1647,0.1649,0.1651,0.1652,0,0.0776,0.0824,0.0886,0.0984,0.101,0.1062,0.1186,0.1242,0.1359,0.1426,0.1517,0.1561,0.1654,0.1629,0.1702,0.1681,0.1687,0.1693,0.1694,0.1618,0.1558,0.1583,0.1668,0.1667,0.1666,0.1664,0.1663,0,0.0718,0.081,0.087,0.0898,0.1015,0.1076,0.1154,0.1274,0.134,0.1495,0.156,0.1658,0.1723,0.1748,0.1777,0.1752,0.1832,0.1787,0.1719,0.1713,0.1743,0.1733,0.1833,0.1833,0.1833,0.1833,0.1833,0,0.0686,0.072,0.0854,0.0874,0.0965,0.1059,0.1165,0.126,0.1397,0.1485,0.1599,0.1673,0.1761,0.1809,0.1809,0.1801,0.1857,0.1748,0.1728,0.1761,0.1753,0.1748,0.1738,0.1834,0.1834,0.1834,0.1834,0,0.0586,0.0673,0.0726,0.0869,0.0933,0.0986,0.1166,0.1228,0.1383,0.1499,0.1561,0.1711,0.1794,0.1841,0.1902,0.1839,0.1842,0.1823,0.1868,0.1847,0.1687,0.1679,0.1737,0.1735,0.1733,0.1732,0.173,0,0.0541,0.0565,0.0699,0.0749,0.0822,0.0943,0.1029,0.1211,0.1284,0.1503,0.1537,0.1689,0.1772,0.178,0.1852,0.1857,0.1833,0.1813,0.1742,0.1707,0.1683,0.1678,0.1672,0.1728,0.1727,0.1727,0.1726,0,0.0451,0.0491,0.0536,0.0649,0.0746,0.0841,0.0981,0.1039,0.1243,0.1382,0.1501,0.1579,0.1671,0.1731,0.1769,0.176,0.1815,0.1794,0.1796,0.1728,0.1697,0.1673,0.167,0.172,0.1721,0.1722,0.1722,0,0.037,0.0369,0.0446,0.054,0.0648,0.0728,0.0816,0.0942,0.1052,0.1302,0.1343,0.1509,0.1656,0.1682,0.171,0.1717,0.1675,0.1597,0.1608,0.1616,0.1565,0.1506,0.1473,0,0,0,0,0,0.0303,0.0305,0.0357,0.045,0.0546,0.0631,0.0784,0.0875,0.1084,0.1126,0.1242,0.1334,0.1441,0.1525,0.1506,0.1641,0.1663,0.1611,0.1572,0.1687,0.1694,0.1648,0,0,0,0,0,0,0.0255,0.0279,0.0309,0.0372,0.0433,0.0538,0.0637,0.0769,0.0811,0.1021,0.1078,0.1239,0.1344,0.1429,0.1473,0.1499,0.1444,0.172,0.1717,0.1683,0.1689,0.1695,0.165,0,0,0,0,0]},{"header":{"parameterUnit":"m.s-1","parameterCategory":2,"la1":30.2991,"la2":30.254,"lo1":-89.0895,"lo2":-89.0444,"dy":0.0017,"dx":0.0017,"nx":28,"ny":28,"refTime":"2023-08-01T03:00:00:Z","depth":"4","parameterNumber":3,"parameterNumberName":"V-component_of_CURRENTS"},"data":[0,0,0,0,0,0,0,0,0,0,0,0,0,0,0,0,0,0,0,0,0,0,0,0,0,0,0,0,0,0,0,0,0,0,0,0,0,0,0,0,0,0,0,0,0,0,0,0,0,0,0,0,0,0,0,0,0,0,0.0105,0.0104,0,0.0076,0.0076,0.0075,0.0024,0.0023,0.0022,0.0021,-0.0082,-0.0083,-0.0085,0,0,0,0,0,0,0,0,0,0,0,0,0,0.0075,0.0075,0.0105,0.0104,0.0104,0.0076,0.0076,0.0075,0.0024,0.0023,0.0022,0.0021,-0.0081,-0.0083,-0.0086,0,0,0,0,0,0,0,0,0,0,0,0,0,0.0069,0.0076,0.0105,0.0077,0.0074,0.0077,0.0076,0.0075,0.0024,0.0023,0.0022,0.0021,-0.008,-0.0083,-0.0086,-0.008,0,0,-0.0095,-0.0096,0,0,0,0,0,0,0,0,0.007,0.007,0.0081,0.0079,0.0076,0.0054,0.0028,0.002,0.0024,0.0041,0.0021,0.002,-0.0041,-0.0047,-0.0051,-0.0085,-0.0089,-0.0095,-0.0097,-0.0098,-0.0099,0,0,0,0,0,0,0,0.007,0.0071,0.0091,0.0081,0.0078,0.0052,0.005,0.0026,0.0004,0.004,0.0036,0.0037,-0.0043,-0.0048,-0.0054,-0.0091,-0.0095,-0.0098,-0.01,-0.0101,-0.0186,-0.0186,0,0,0,0,0,0,0.0081,0.0072,0.0092,0.0091,0.0072,0.0054,0.0052,0.0061,0.0006,-0.0002,0.0038,0.0034,-0.0043,-0.0051,-0.0058,-0.0096,-0.0098,-0.0101,-0.0103,-0.0186,-0.0186,-0.0187,0,0,0,0,0,0,0.0081,0.0084,0.0094,0.0081,0.0081,0.0056,0.0066,0.0061,0.005,0.0006,-0.0005,0.0032,-0.0044,-0.0054,-0.0091,-0.0099,-0.0102,-0.0105,-0.0185,-0.0186,-0.0186,-0.0145,0,0,0,0,0,0,0.008,0.0084,0.0091,0.0083,0.0082,0.0094,0.0068,0.0061,0.0053,0.0049,-0.0002,-0.0012,-0.0046,-0.0086,-0.0094,-0.0103,-0.0107,-0.0184,-0.0185,-0.0186,-0.0146,-0.0144,-0.0143,0,0,0,0,0,0.008,0.0102,0.0092,0.0094,0.0094,0.0095,0.0092,0.0069,0.0055,0.0054,0.0013,-0.0011,-0.0098,-0.0088,-0.0097,-0.0108,-0.0184,-0.0185,-0.0186,-0.0147,-0.0145,-0.0143,0,0,0,0,0,0,0.0093,0.0098,0.0088,0.011,0.01,0.0087,0.0089,0.0074,0.0044,0.0036,-0.0011,-0.0024,-0.0065,-0.0088,-0.0077,-0.0137,-0.0147,-0.015,-0.0114,-0.0112,-0.0111,-0.0119,-0.011,0,0,0,0,0,0.0101,0.0117,0.0111,0.0126,0.0126,0.0107,0.0104,0.0089,0.0065,0.0052,0.0014,-0.003,-0.0073,-0.0093,-0.0133,-0.0154,-0.019,-0.017,-0.0169,-0.0167,-0.0181,-0.0256,-0.0263,-0.019,-0.019,-0.019,0,0,0.0114,0.0116,0.0126,0.013,0.0122,0.0124,0.0102,0.0103,0.0094,0.0045,0.0018,-0.0026,-0.0079,-0.0115,-0.0134,-0.0136,-0.0198,-0.0169,-0.0167,-0.0182,-0.0258,-0.0265,-0.0272,-0.0191,-0.0191,-0.0191,0,0,0.0142,0.0147,0.0164,0.0162,0.0155,0.0141,0.0142,0.0126,0.0107,0.0083,0.0034,-0.0017,-0.0062,-0.0114,-0.0143,-0.0156,-0.0191,-0.0162,-0.0158,-0.023,-0.0237,-0.0243,-0.0256,-0.0264,-0.0157,-0.0157,-0.0157,0,0.0152,0.0175,0.0168,0.0179,0.0179,0.015,0.0161,0.0141,0.011,0.0089,0.0077,-0.0027,-0.0068,-0.0134,-0.0143,-0.0154,-0.0181,-0.0156,-0.0228,-0.0236,-0.0243,-0.0256,-0.0265,-0.0155,-0.0156,-0.0156,-0.0156,0,0.0184,0.0203,0.0215,0.0216,0.0213,0.0222,0.0196,0.018,0.0153,0.012,0.0054,-0.0011,-0.0074,-0.0096,-0.0124,-0.0197,-0.0192,-0.0219,-0.023,-0.0248,-0.0259,-0.027,-0.0153,-0.0153,-0.0154,-0.0154,0,0,0.0198,0.0233,0.0235,0.0244,0.0235,0.0236,0.0222,0.0193,0.0176,0.012,0.0085,-0.0009,-0.0053,-0.0091,-0.0139,-0.0207,-0.0267,-0.023,-0.0235,-0.0237,-0.0386,-0.0348,-0.0356,-0.0309,-0.0312,-0.0314,-0.0357,0,0.0218,0.026,0.0265,0.0286,0.0299,0.0277,0.0269,0.0235,0.0194,0.0153,0.0061,0.0007,-0.0046,-0.0076,-0.0155,-0.0244,-0.0301,-0.025,-0.0375,-0.0378,-0.0339,-0.0371,-0.0322,-0.0365,-0.0368,-0.037,-0.0371,0,0.0229,0.0259,0.0299,0.0323,0.0327,0.033,0.0306,0.0299,0.0231,0.0198,0.0115,0.005,-0.0056,-0.0095,-0.0266,-0.023,-0.0308,-0.0377,-0.0381,-0.0376,-0.0362,-0.0356,-0.0391,-0.039,-0.0388,-0.0387,-0.0385,0,0.0221,0.0271,0.0307,0.0316,0.034,0.0345,0.0348,0.0305,0.0298,0.0222,0.02,0.0065,0.0006,-0.0133,-0.0267,-0.0273,-0.0441,-0.0463,-0.05,-0.0495,-0.0532,-0.0526,-0.0595,-0.0595,-0.0595,-0.0594,-0.0594,0,0.0227,0.025,0.0311,0.0327,0.0362,0.0368,0.0382,0.0361,0.0334,0.0323,0.0225,0.018,-0.0015,-0.0125,-0.0253,-0.0396,-0.043,-0.051,-0.0522,-0.0506,-0.0496,-0.0537,-0.053,-0.0596,-0.0596,-0.0595,-0.0595,0,0.0212,0.0247,0.0293,0.0345,0.036,0.0385,0.0424,0.0437,0.0405,0.0389,0.0369,0.025,0.0106,-0.0061,-0.0273,-0.0362,-0.0508,-0.0549,-0.0475,-0.048,-0.0511,-0.0501,-0.0599,-0.0598,-0.0598,-0.0597,-0.0597,0,0.0214,0.0242,0.0315,0.0354,0.0383,0.0428,0.0466,0.0463,0.0475,0.0431,0.0423,0.0296,0.02,-0.0042,-0.0232,-0.0451,-0.0493,-0.0543,-0.0584,-0.0518,-0.0521,-0.0512,-0.0503,-0.0596,-0.0596,-0.0596,-0.0596,0,0.0235,0.0262,0.0316,0.0392,0.0443,0.0497,0.0543,0.0548,0.0548,0.0523,0.0463,0.0332,0.0182,-0.0027,-0.0189,-0.0356,-0.0503,-0.0539,-0.0542,-0.0582,-0.0516,-0.0517,-0.0509,-0.0594,-0.0594,-0.0595,-0.0595,0,0.0268,0.0307,0.0381,0.0437,0.0508,0.055,0.0566,0.0587,0.0589,0.0537,0.0518,0.0357,0.0251,0.0023,-0.0131,-0.0285,-0.0342,-0.0391,-0.0403,-0.0407,-0.035,-0.0239,-0.0253,0,0,0,0,0,0.0302,0.0348,0.0422,0.0481,0.0549,0.057,0.062,0.0629,0.0616,0.0588,0.0552,0.0416,0.0183,0.0076,-0.0074,-0.0143,-0.0376,-0.0323,-0.0441,-0.0585,-0.0587,-0.0551,0,0,0,0,0,0,0.0338,0.0407,0.043,0.0507,0.0542,0.0605,0.063,0.0621,0.0598,0.0568,0.0445,0.0384,0.0151,0.0262,-0.0078,-0.0126,-0.0218,-0.0437,-0.044,-0.0584,-0.0586,-0.0587,-0.0551,0,0,0,0,0]}]]